Flag for United Arab Emirates Weather past 2 weeks in Ras al-Khaimah, Ras al-Khaimah, United Arab Emirates

Now
102 °F

Passing clouds.


Feels Like: 108 °F
Forecast: 84 / 105 °F
Wind: 15 mph from Northwest

Location: Ras Al Khaimah International Airport

Current Time: Aug 27, 2014 at 4:03:31 PM

Latest Report: Aug 27, 2014 at 3:00 PM


Visibility: N/A

Pressure: 29.56 "Hg

Humidity: 33%

Dew point: 68 °F

Location of Ras al-KhaimahLocation

Historic Weather in Ras al-Khaimah — Graph

°F

Ras al-Khaimah temperature yesterday

Maximum temperature yesterday: 102 °F (at 12:00 PM)
Minimum temperature yesterday: 86 °F (at 12:00 AM)
Average temperature yesterday: 93 °F

Past Weeks' High & Low Weather Summary

 TemperatureHumidityPressure
High115 °F (Aug 16, 12:00 PM)89% (Aug 22, 6:00 AM)29.77 "Hg (Aug 22, 6:00 AM)
Low82 °F (Aug 15, 6:00 AM)10% (Aug 16, 12:00 PM)29.39 "Hg (Aug 16, 4:00 PM)
Average95 °F47%29.57 "Hg
* Reported Aug 12 3:00 PM — Aug 27 3:00 PM, Ras al-Khaimah, Weather by CustomWeather, © 2014

Note: Actual official high and low records may vary slightly from our data, if they occured in-between our weather recording intervals... More about our weather records

Advertising

Ras al-Khaimah weather history for previous 24 hours

 ConditionsComfort  
Time TempWeatherWind HumidityBarometerVisibility
3:00 PM
Aug 27
102 °FPassing clouds.15 mph33%29.56 "HgN/A
2:00 PM104 °FPassing clouds.17 mph29%29.56 "HgN/A
1:00 PM104 °FPassing clouds.16 mph29%29.59 "HgN/A
12:00 PM106 °FPassing clouds.8 mph25%29.62 "HgN/A
11:00 AM104 °FPassing clouds.7 mph26%29.65 "HgN/A
10:00 AM100 °FPassing clouds.7 mph31%29.65 "HgN/A
9:00 AM99 °FPassing clouds.8 mph33%29.67 "HgN/A
8:00 AM93 °FClear.2 mph53%29.65 "Hg5 mi
7:00 AM86 °FClear.5 mph70%29.65 "Hg4 mi
6:00 AM84 °FClear.7 mph74%29.62 "Hg4 mi
5:00 AM84 °FClear.6 mph74%29.62 "Hg4 mi
4:00 AM84 °FClear.3 mph70%29.62 "Hg5 mi
3:00 AM84 °FClear.2 mph70%29.62 "Hg5 mi
2:00 AM86 °FClear.2 mph66%29.62 "Hg5 mi
1:00 AM86 °FClear.2 mph70%29.62 "Hg5 mi
12:00 AM88 °FClear.5 mph66%29.62 "Hg5 mi
11:00 PM
Aug 26
90 °FClear.3 mph59%29.62 "Hg5 mi
10:00 PM90 °FClear.5 mph55%29.62 "Hg5 mi
9:00 PM91 °FClear.3 mph52%29.62 "Hg5 mi
8:00 PM91 °FClear.5 mph52%29.62 "Hg5 mi
7:00 PM93 °FClear.6 mph53%29.59 "Hg5 mi
6:00 PM95 °FClear.6 mph47%29.59 "Hg5 mi
5:00 PM97 °FClear.9 mph42%29.59 "Hg5 mi
4:00 PM99 °FClear.14 mph42%29.59 "Hg4 mi
Weather by CustomWeather, © 2014

See weather overviewHow to use our weather pages